[TLELIST] Archives

 

[TLELIST] Current TLEs

July 3rd 2026 PDT

0 HST 1 20580U 90037B 26183.72415950 .00007907 00000-0 24931-3 0 9992 2 20580 28.4736 334.3758 0001625 336.7387 23.3136 15.30934799790959 0 ISS (ZARYA) 1 25544U 98067A 26182.50817465 .00006185 00000-0 11827-3 0 9997 2 25544 51.6311 229.1989 0004224 255.0896 104.9625 15.49503254573972 0 CXO 1 25867U 99040B 26185.24501744 .00000765 00000-0 00000+0 0 9996 2 25867 56.3727 116.2458 7810468 310.0498 0.5720 0.37797064 17382 ...Continue Reading

[TLELIST] Current TLEs

July 2nd 2026 PDT

0 HST 1 20580U 90037B 26183.13746576 .00008151 00000-0 25728-3 0 9995 2 20580 28.4736 338.3859 0001559 329.1598 30.8906 15.30927115790863 0 ISS (ZARYA) 1 25544U 98067A 26182.50817465 .00006185 00000-0 11827-3 0 9997 2 25544 51.6311 229.1989 0004224 255.0896 104.9625 15.49503254573972 0 CXO 1 25867U 99040B 26185.24501744 .00000765 00000-0 00000+0 0 9996 2 25867 56.3727 116.2458 7810468 310.0498 0.5720 0.37797064 17382 ...Continue Reading

[TLELIST] Current TLEs

July 1st 2026 PDT

0 HST 1 20580U 90037B 26182.15963632 .00008219 00000-0 25961-3 0 9994 2 20580 28.4735 345.0705 0001499 316.6330 43.4148 15.30913500790710 0 ISS (ZARYA) 1 25544U 98067A 26182.12120860 .00006925 00000-0 13146-3 0 9999 2 25544 51.6311 231.1150 0004254 253.5517 106.5005 15.49499881573915 0 CXO 1 25867U 99040B 26182.60009460 .00000698 00000-0 00000-0 0 9997 2 25867 56.3386 116.3110 7812275 310.0948 0.4515 0.37794011 17376 ...Continue Reading

[TLELIST] Current TLEs

June 30th 2026 PDT

0 HST 1 20580U 90037B 26179.87800082 .00006406 00000-0 20097-3 0 9999 2 20580 28.4733 0.6674 0001411 286.0347 74.0094 15.30881351790368 0 ISS (ZARYA) 1 25544U 98067A 26180.50883825 .00005660 00000-0 10902-3 0 9998 2 25544 51.6320 239.0980 0004278 246.9974 113.0563 15.49477794573665 0 CXO 1 25867U 99040B 26182.60009460 .00000698 00000-0 00000-0 0 9997 2 25867 56.3386 116.3110 7812275 310.0948 0.4515 0.37794011 17376 ...Continue Reading

[TLELIST] Current TLEs

June 29th 2026 PDT

0 HST 1 20580U 90037B 26179.87800082 .00006406 00000-0 20097-3 0 9999 2 20580 28.4733 0.6674 0001411 286.0347 74.0094 15.30881351790368 0 ISS (ZARYA) 1 25544U 98067A 26179.67039743 .00005693 00000-0 10963-3 0 9999 2 25544 51.6320 243.2491 0004268 243.5322 116.5229 15.49468267573536 0 CXO 1 25867U 99040B 26182.60009460 .00000698 00000-0 00000-0 0 9997 2 25867 56.3386 116.3110 7812275 310.0948 0.4515 0.37794011 17376 ...Continue Reading

[TLELIST] Current TLEs

June 28th 2026 PDT

0 HST 1 20580U 90037B 26179.22609707 .00006378 00000-0 20010-3 0 9992 2 20580 28.4733 5.1239 0001407 278.1768 81.8668 15.30873546790268 0 ISS (ZARYA) 1 25544U 98067A 26179.15443113 .00005845 00000-0 11238-3 0 9997 2 25544 51.6320 245.8034 0004257 241.1666 118.8896 15.49462531573454 0 CXO 1 25867U 99040B 26179.95532601 .00000592 00000-0 00000-0 0 9992 2 25867 56.3077 116.3625 7815439 310.1470 0.3486 0.37796038 17366 ...Continue Reading

[TLELIST] Current TLEs

June 27th 2026 PDT

0 HST 1 20580U 90037B 26178.24823549 .00007152 00000-0 22534-3 0 9999 2 20580 28.4733 11.8084 0001399 264.2756 95.7680 15.30861955790116 0 ISS (ZARYA) 1 25544U 98067A 26178.25148564 .00007401 00000-0 14016-3 0 9996 2 25544 51.6322 250.2737 0004284 237.3448 122.7128 15.49452150573314 0 CXO 1 25867U 99040B 26179.95532601 .00000592 00000-0 00000-0 0 9992 2 25867 56.3077 116.3625 7815439 310.1470 0.3486 0.37796038 17366 ...Continue Reading

[TLELIST] Current TLEs

June 26th 2026 PDT

0 HST 1 20580U 90037B 26177.27036609 .00007290 00000-0 22994-3 0 9997 2 20580 28.4732 18.4928 0001404 251.2839 108.7605 15.30848043789966 0 ISS (ZARYA) 1 25544U 98067A 26177.15504249 .00009461 00000-0 17697-3 0 9996 2 25544 51.6325 255.7018 0004359 233.1468 126.9121 15.49434804573144 0 CXO 1 25867U 99040B 26179.95532601 .00000592 00000-0 00000-0 0 9992 2 25867 56.3077 116.3625 7815439 310.1470 0.3486 0.37796038 17366 ...Continue Reading

[TLELIST] Current TLEs

June 25th 2026 PDT

0 HST 1 20580U 90037B 26175.96652655 .00007148 00000-0 22544-3 0 9999 2 20580 28.4728 27.4055 0001442 233.5980 126.4483 15.30829347789769 0 ISS (ZARYA) 1 25544U 98067A 26176.18758125 .00009470 00000-0 17725-3 0 9994 2 25544 51.6326 260.4913 0004409 228.8642 131.1966 15.49415960572992 0 CXO 1 25867U 99040B 26177.31113606 .00000484 00000-0 00000-0 0 9990 2 25867 56.2784 116.4107 7818645 310.1913 0.3296 0.37800874 17352 ...Continue Reading

[TLELIST] Current TLEs

June 24th 2026 PDT

0 HST 1 20580U 90037B 26174.98863599 .00006014 00000-0 18861-3 0 9999 2 20580 28.4728 34.0889 0001455 220.4821 139.5667 15.30816101789618 0 ISS (ZARYA) 1 25544U 98067A 26175.15560926 .00007363 00000-0 13975-3 0 9992 2 25544 51.6326 265.6000 0004427 224.4953 135.5681 15.49396189572839 0 CXO 1 25867U 99040B 26177.31113606 .00000484 00000-0 00000-0 0 9990 2 25867 56.2784 116.4107 7818645 310.1913 0.3296 0.37800874 17352 ...Continue Reading
  • This mailing list is a public mailing list - anyone may join or leave, at any time.
  • This mailing list is announce-only.

International Space Station (ISS) / Hubble Space Telescope (HST) / Chandra X-Ray Observatory Orbital Data via EMAIL

Privacy Policy:

Private list